Simultaneous Nadir Overpasses (SNOs) Predictions

Prediction of SNOs between GOES-14 and AQUA Satellite Orbit:

Table of predicted SNOs for the next 14.0 days since TLE Epoch: 11/30/2018
Index Date Time (GOES-14) GOES-14 Lat,Lon AQUA Lat,Lon Distance(km) Time Diff (sec)
1 12/02/2018 20:32:39 -0.02,-104.02 -0.03,-103.94 8.53 80
2 12/04/2018 20:20:28 -0.03,-104.03 0.63,-100.99 345.61 80
3 12/05/2018 08:41:44 0.01,-104.22 0.42,-106.16 221.12 80
4 12/07/2018 08:26:52 0.02,-104.22 -0.18,-103.20 115.92 80
5 12/07/2018 20:48:15 -0.00,-104.03 -0.95,-108.38 495.78 80
6 12/09/2018 08:14:41 0.03,-104.23 -0.85,-100.25 452.97 80
7 12/09/2018 20:36:04 -0.01,-104.03 -0.28,-105.43 158.28 80
8 12/11/2018 20:26:32 -0.01,-104.04 0.33,-102.47 179.18 80
9 12/12/2018 08:47:49 -0.01,-104.26 0.72,-107.64 384.70 80
10 12/14/2018 08:35:37 -0.01,-104.26 0.10,-104.68 47.32 80




NCC Satellite Simultaneous Nadir Overpasses (SNOs) Prediction Service
